This is the latest recevied weather packets stored in our database for station/object OE3APM-13. If no packets are shown the sender has not sent any weather packets the latest 1 day(s).
| Time | Temp. | Humidity | Pressure | Rain* | Wind** | Luminosity | Snow |
|---|---|---|---|---|---|---|---|
| 1778056853 | 20.56° C | 52% | 1007.7 hPa | 0 mm | - | 798 W/m² | - |
| 1778056251 | 20.56° C | 53% | 1007.7 hPa | 0 mm | - | 731 W/m² | - |
| 1778055966 | 20° C | 57% | 1007.8 hPa | 0 mm | - | 721 W/m² | - |
| 1778055647 | 19.44° C | 56% | 1007.8 hPa | 0 mm | - | 710 W/m² | - |
| 1778054145 | 18.33° C | 57% | 1007.8 hPa | 0 mm | - | 666 W/m² | - |
| 1778053847 | 18.33° C | 59% | 1007.8 hPa | 0 mm | - | 645 W/m² | - |
| 1778053547 | 18.33° C | 61% | 1007.8 hPa | 0 mm | - | 675 W/m² | - |
| 1778053248 | 17.78° C | 61% | 1007.9 hPa | 0 mm | - | 606 W/m² | - |
| 1778052941 | 17.78° C | 61% | 1007.9 hPa | 0 mm | - | 691 W/m² | - |
| 1778052641 | 17.78° C | 63% | 1007.9 hPa | 0 mm | - | 232 W/m² | - |
| 1778051742 | 17.22° C | 69% | 1008.1 hPa | 0 mm | - | 570 W/m² | - |
| 1778051432 | 17.22° C | 68% | 1008.1 hPa | 0 mm | - | 541 W/m² | - |
| 1778050830 | 17.22° C | 70% | 1008.1 hPa | 0 mm | - | 527 W/m² | - |
| 1778050529 | 16.67° C | 69% | 1008 hPa | 0 mm | - | 429 W/m² | - |
| 1778050232 | 16.67° C | 68% | 1008 hPa | 0 mm | - | 506 W/m² | - |
| 1778049630 | 16.11° C | 68% | 1008 hPa | 0 mm | - | 464 W/m² | - |
| 1778049329 | 16.11° C | 68% | 1008 hPa | 0 mm | - | 452 W/m² | - |
| 1778049030 | 16.11° C | 71% | 1008 hPa | 0 mm | - | 417 W/m² | - |
| 1778048730 | 15.56° C | 72% | 1008 hPa | 0 mm | - | 436 W/m² | - |
| 1778048130 | 15.56° C | 71% | 1008.1 hPa | 0 mm | - | 158 W/m² | - |
| 1778046927 | 15° C | 75% | 1008 hPa | 0 mm | - | 394 W/m² | - |
| 1778046031 | 14.44° C | 76% | 1007.9 hPa | 0 mm | - | 188 W/m² | - |
| 1778045727 | 13.89° C | 78% | 1007.9 hPa | 0 mm | - | 294 W/m² | - |
| 1778045426 | 13.89° C | 80% | 1007.9 hPa | 0 mm | - | 330 W/m² | - |
| 1778045127 | 13.33° C | 82% | 1007.9 hPa | 0 mm | - | 320 W/m² | - |
* Rain latest hour (hover to see other rain measurements)
** Current wind speed in m/s (hover to see current wind gust speed)